Regional Weather Roundup
Issued by NWS

Home | Current Version | Previous Version | Graphics & Text | Print | Product List | Glossary Off
Versions: 1 2 3 4 5 6 7 8 9 10 11 12 13 14 15 16 17 18 19 20 21 22 23 24 25 26 27 28 29 30 31 32 33 34 35 36 37 38 39 40 41 42 43 44 45 46 47 48 49 50

626
ASUS44 KLIX 200310
RWRLA
LOUISIANA WEATHER ROUNDUP
NATIONAL WEATHER SERVICE NEW ORLEANS LA
1000 PM CDT SAT APR 19 2014

NOTE: "FAIR" INDICATES FEW OR NO CLOUDS BELOW 12,000 FEET WITH NO
      SIGNIFICANT WEATHER AND/OR OBSTRUCTIONS TO VISIBILITY.
      SKY/WX - SKY CONDITION AND SIGNIFICANT WEATHER.
      TMP - AIR TEMPERATURE.    DP   - DEWPOINT TEMPERATURE.
      RH  - RELATIVE HUMIDITY.  PRES - PRESSURE.
      HX  - HEAT INDEX.         WCI  - WIND CHILL INDEX.

*  THESE STATIONS ARE NOT NWS OR FAA STATIONS AND ARE NOT UNDER
   NWS QUALITY CONTROL.

LAZ040-048-061>063-065-066-069-200400-
SOUTHEAST LOUISIANA

CITY           SKY/WX    TMP DP  RH WIND       PRES   REMARKS
N.O. AUDUBON   NOT AVBL
N.O. INTL ARPT PTCLDY    68  58  70 NE6       30.11S
N.O. LAKEFRONT CLEAR     69  62  78 NW5       30.12S
N.O. DOWNTOWN* FAIR      73  52  46 N3        30.12S
SLIDELL        CLEAR     62  53  72 CALM      30.12R
BATON ROUGE    CLEAR     64  55  72 N3        30.13R
BOOTHVILLE     CLEAR     65  62  90 W6        30.12R
BELLE CHASSE   PTCLDY    59  55  87 CALM      30.11S
BOGALUSA*        N/A     60  55  82 CALM      30.14R
GALLIANO*      CLEAR     64  61  88 CALM      30.12S
NEW ROADS*     FAIR      63  57  83 CALM      30.14R
GONZALES*      FAIR      63  58  82 CALM      30.12R
HAMMOND*       CLEAR     59  54  82 CALM      30.14S
HOUMA*           N/A     61  58  89 CALM      30.12S
PORT FOURCHON* CLEAR     68  61  77 W8        30.14R

$$

LAZ041-044-053-054-200400-
SOUTHWEST LOUISIANA

CITY           SKY/WX    TMP DP  RH WIND       PRES   REMARKS
LAKE CHARLES   CLEAR     62  59  90 CALM      30.12S
LAFAYETTE      CLEAR     64  54  69 NE5       30.13R
PATTERSON      CLEAR     63  59  88 CALM      30.16R
SALT POINT       N/A     66  62  87 CALM      30.12R
NEW IBERIA     CLEAR     69  53  56 NE7       30.13R
CHENAULT AIRPK CLEAR     63  58  84 SE3       30.13S

$$

LAZ027-028-200400-
CENTRAL LOUISIANA

CITY           SKY/WX    TMP DP  RH WIND       PRES   REMARKS
FORT POLK      CLEAR     62  56  80 CALM      30.13R
ALEXANDRIA INT CLEAR     63  56  78 CALM      30.12R
ALEXANDRIA     CLEAR     60  56  86 CALM      30.14R

$$

LAZ001-002-200400-
NORTHWEST LOUISIANA

CITY           SKY/WX    TMP DP  RH WIND       PRES   REMARKS
SHREVEPORT     MOCLDY    63  54  72 CALM      30.13R
BARKSDALE AFB  PTCLDY    63  56  76 CALM      30.13R
DTN SHREVEPORT PTCLDY    62  54  74 CALM      30.13R

$$

LAZ014-016-200400-
NORTHEAST LOUISIANA

CITY           SKY/WX    TMP DP  RH WIND       PRES   REMARKS
MONROE         CLEAR     60  54  80 CALM      30.15S
TALLULAH       CLEAR     65  60  84 CALM      30.15R

$$




USA.gov is the U.S. government's official web portal to all federal, state and local government web resources and services.